TimeMST,TemperatureF,Dew PointF,Humidity,Sea Level PressureIn,VisibilityMPH,Wind Direction,Wind SpeedMPH,Gust SpeedMPH,PrecipitationIn,Events,Conditions,WindDirDegrees,DateUTC
12:55 AM,19.9,16.0,85,29.77,10.0,South,3.5,-,N/A,,Overcast,170,2013-12-19 07:55:00
1:55 AM,19.9,16.0,85,29.77,10.0,Calm,Calm,-,N/A,,Overcast,0,2013-12-19 08:55:00
2:55 AM,21.0,17.1,85,29.77,10.0,NW,4.6,-,N/A,,Overcast,320,2013-12-19 09:55:00
3:55 AM,26.1,21.9,84,29.76,9.0,Calm,Calm,-,0.00,,Overcast,0,2013-12-19 10:55:00
4:55 AM,23.0,18.0,81,29.77,10.0,SSE,4.6,-,N/A,,Overcast,150,2013-12-19 11:55:00
5:55 AM,23.0,19.0,85,29.79,10.0,Calm,Calm,-,N/A,,Overcast,0,2013-12-19 12:55:00
6:55 AM,24.1,19.9,84,29.80,10.0,Calm,Calm,-,N/A,,Overcast,0,2013-12-19 13:55:00
7:55 AM,30.0,17.1,59,29.82,10.0,NNE,12.7,-,N/A,,Overcast,20,2013-12-19 14:55:00
8:55 AM,28.0,17.1,63,29.88,10.0,North,13.8,-,N/A,,Overcast,360,2013-12-19 15:55:00
9:55 AM,28.0,16.0,61,29.92,10.0,NNE,12.7,-,N/A,,Overcast,20,2013-12-19 16:55:00
10:55 AM,28.9,14.0,54,29.96,10.0,North,10.4,-,N/A,,Overcast,10,2013-12-19 17:55:00
11:55 AM,30.0,15.1,54,29.97,10.0,North,13.8,-,N/A,,Overcast,10,2013-12-19 18:55:00
12:55 PM,30.0,16.0,56,29.98,10.0,North,9.2,-,N/A,,Overcast,360,2013-12-19 19:55:00
1:55 PM,30.9,12.9,47,29.91,10.0,NE,6.9,-,N/A,,Clear,40,2013-12-19 20:55:00
2:55 PM,30.9,12.9,47,29.91,10.0,NNE,6.9,-,N/A,,Clear,20,2013-12-19 21:55:00
3:55 PM,30.0,12.9,49,29.94,10.0,North,6.9,-,N/A,,Clear,10,2013-12-19 22:55:00
4:55 PM,27.0,14.0,58,29.97,10.0,NNE,9.2,-,N/A,,Overcast,20,2013-12-19 23:55:00
5:55 PM,25.0,10.9,55,30.01,10.0,North,6.9,-,N/A,,Overcast,360,2013-12-20 00:55:00
6:55 PM,21.0,10.0,63,30.01,10.0,Calm,Calm,-,N/A,,Scattered Clouds,0,2013-12-20 01:55:00
7:55 PM,19.0,10.0,68,30.01,10.0,NW,4.6,-,N/A,,Scattered Clouds,310,2013-12-20 02:55:00
8:55 PM,15.1,8.1,74,30.02,10.0,NNW,3.5,-,N/A,,Scattered Clouds,330,2013-12-20 03:55:00
9:55 PM,16.0,8.1,71,30.03,10.0,ESE,4.6,-,N/A,,Partly Cloudy,120,2013-12-20 04:55:00
10:55 PM,12.9,7.0,77,30.05,10.0,Calm,Calm,-,N/A,,Clear,0,2013-12-20 05:55:00
11:55 PM,14.0,8.1,77,30.05,10.0,South,3.5,-,N/A,,Clear,180,2013-12-20 06:55:00